Milwaukee Timmerman, WI

6:06 PM CDT on September 20, 2017 (GMT -0500)
Timmerman

Weather History for KMWC - August, 2014

Change the Weather History Date:

Saturday, August 16, 2014

  Actual Average Record
Temperature  
Mean Temperature 71 °F -  
Max Temperature 82 °F 83 °F 105 °F (1988)
Min Temperature 60 °F 62 °F 46 °F (1979)
Cooling Degree Days 6    
Growing Degree Days 21 (Base 50)    
Moisture  
Dew Point 58 °F    
Average Humidity 74    
Maximum Humidity 88    
Minimum Humidity 48    
Precipitation  
Precipitation 0.00 in - - ()
Sea Level Pressure  
Sea Level Pressure 29.92 in    
Wind  
Wind Speed 7 mph (WSW)    
Max Wind Speed 15 mph    
Max Gust Speed 20 mph    
Visibility 10 miles    
Events      
Averages and records for this station are not official NWS values.
T = Trace of Precipitation, MM = Missing Value Source: NWS Daily Summary

Daily Weather History Graph

Daily Weather History Graph

Search for Another Location

Airport or City:

Trip Planner

Search our weather history database for the weather conditions in past years. The results will help you decide how hot, cold, wet, or windy it might be!

Date:

Astronomy

Aug. 16, 2014 Rise Set
Actual Time 5:58 AM CDT 7:53 PM CDT
Civil Twilight 5:28 AM CDT 8:23 PM CDT
Nautical Twilight 4:50 AM CDT 9:00 PM CDT
Astronomical Twilight 4:10 AM CDT 9:41 PM CDT
Moon 11:24 PM CDT (8/16) 12:56 PM CDT (8/16)
Length of Visible Light 14h 55m
Length of Day
13h 54m
Waning Gibbous, 58% of the Moon is Illuminated
Aug 16
Waning Gibbous
Aug 17
Last Quarter
Aug 25
New
Sep 2
First Quarter
Sep 8
Full

Hourly Weather History & Observations

Time (CDT) Temp. Heat Index Dew Point Humidity Pressure Visibility Wind Dir Wind Speed Gust Speed Precip Events Conditions
12:15 AM 64.4 °F - 55.4 °F 73% 29.94 in 10.0 mi WSW 6.9 mph - N/A   Clear
12:35 AM 64.4 °F - 55.4 °F 73% 29.94 in 10.0 mi WSW 5.8 mph - N/A   Clear
12:55 AM 64.4 °F - 55.4 °F 73% 29.93 in 10.0 mi WSW 5.8 mph - N/A   Clear
1:15 AM 64.4 °F - 55.4 °F 73% 29.92 in 10.0 mi WSW 3.5 mph - N/A   Clear
1:35 AM 64.4 °F - 55.4 °F 73% 29.92 in 10.0 mi WSW 4.6 mph - N/A   Clear
1:55 AM 64.4 °F - 55.4 °F 73% 29.92 in 10.0 mi WSW 5.8 mph - N/A   Clear
2:15 AM 62.6 °F - 55.4 °F 77% 29.91 in 10.0 mi WSW 9.2 mph - N/A   Clear
2:35 AM 62.6 °F - 55.4 °F 77% 29.91 in 10.0 mi SW 4.6 mph - N/A   Clear
2:55 AM 62.6 °F - 55.4 °F 77% 29.91 in 10.0 mi WSW 6.9 mph - N/A   Clear
3:15 AM 62.6 °F - 55.4 °F 77% 29.90 in 10.0 mi SW 5.8 mph - N/A   Clear
3:35 AM 62.6 °F - 55.4 °F 77% 29.91 in 10.0 mi SSW 4.6 mph - N/A   Clear
3:55 AM 60.8 °F - 55.4 °F 82% 29.91 in 10.0 mi SW 4.6 mph - N/A   Clear
4:15 AM 62.6 °F - 55.4 °F 77% 29.91 in 10.0 mi SSW 5.8 mph - N/A   Clear
4:35 AM 60.8 °F - 55.4 °F 82% 29.91 in 10.0 mi SW 3.5 mph - N/A   Clear
5:15 AM 60.8 °F - 55.4 °F 82% 29.92 in 10.0 mi Calm Calm - N/A   Clear
5:35 AM 60.8 °F - 55.4 °F 82% 29.92 in 10.0 mi SW 5.8 mph - N/A   Clear
5:55 AM 60.8 °F - 55.4 °F 82% 29.92 in 10.0 mi WSW 6.9 mph - N/A   Clear
6:15 AM 60.8 °F - 55.4 °F 82% 29.92 in 10.0 mi WSW 6.9 mph - N/A   Clear
6:35 AM 60.8 °F - 57.2 °F 88% 29.91 in 10.0 mi WSW 5.8 mph - N/A   Clear
6:45 AM 62.6 °F - 57.2 °F 82% 29.91 in 10.0 mi WSW 5.8 mph - N/A   Clear
7:45 AM 66.2 °F - 60.8 °F 83% 29.92 in 10.0 mi WSW 8.1 mph - N/A   Clear
8:45 AM 69.8 °F - 60.8 °F 73% 29.91 in 10.0 mi West 8.1 mph - N/A   Clear
9:45 AM 71.6 °F - 62.6 °F 73% 29.90 in 10.0 mi West 12.7 mph - N/A   Scattered Clouds
10:45 AM 75.2 °F - 62.6 °F 65% 29.91 in 10.0 mi West 8.1 mph - N/A   Clear
11:45 AM 75.2 °F - 62.6 °F 65% 29.91 in 10.0 mi West 11.5 mph 19.6 mph N/A   Scattered Clouds
12:45 PM 78.8 °F - 62.6 °F 57% 29.90 in 10.0 mi West 11.5 mph 17.3 mph N/A   Scattered Clouds
1:45 PM 80.6 °F 81.8 °F 62.6 °F 54% 29.89 in 10.0 mi West 11.5 mph 17.3 mph N/A   Mostly Cloudy
2:45 PM 80.6 °F 81.8 °F 62.6 °F 54% 29.88 in 10.0 mi West 11.5 mph - N/A   Mostly Cloudy
3:45 PM 82.4 °F 83.4 °F 62.6 °F 51% 29.87 in 10.0 mi West 8.1 mph - N/A   Scattered Clouds
4:45 PM 82.4 °F 82.9 °F 60.8 °F 48% 29.87 in 10.0 mi SW 4.6 mph - N/A   Scattered Clouds
5:45 PM 82.4 °F 82.9 °F 60.8 °F 48% 29.86 in 10.0 mi Calm Calm - N/A   Scattered Clouds
6:45 PM 82.4 °F 83.4 °F 62.6 °F 51% 29.87 in 10.0 mi WSW 4.6 mph - N/A   Scattered Clouds
7:45 PM 82.4 °F 83.4 °F 62.6 °F 51% 29.87 in 10.0 mi Calm Calm - N/A   Clear
9:15 PM 66.2 °F - 62.6 °F 88% 29.93 in 10.0 mi NNE 15.0 mph - N/A   Overcast
9:35 PM 64.4 °F - 60.8 °F 88% 29.94 in 10.0 mi North 12.7 mph - N/A   Overcast
9:55 PM 64.4 °F - 59.0 °F 83% 29.95 in 10.0 mi NE 9.2 mph - N/A   Overcast
10:15 PM 64.4 °F - 59.0 °F 83% 29.95 in 10.0 mi NE 11.5 mph - N/A   Overcast
10:35 PM 64.4 °F - 59.0 °F 83% 29.96 in 10.0 mi NNE 8.1 mph - N/A   Overcast
10:55 PM 64.4 °F - 59.0 °F 83% 29.96 in 10.0 mi NNE 9.2 mph - N/A   Overcast
11:15 PM 64.4 °F - 59.0 °F 83% 29.96 in 10.0 mi NNE 10.4 mph - N/A   Overcast
11:35 PM 62.6 °F - 59.0 °F 88% 29.96 in 10.0 mi NE 5.8 mph - N/A   Overcast
11:55 PM 62.6 °F - 59.0 °F 88% 29.97 in 10.0 mi NNE 10.4 mph - N/A   Overcast